Location: Township of Marena
(38.1747°N, 99.6798°W)
Time: 02:15:14
(UTC+00:00)

Atlas Centaur 2 - Pass Details

Date: 26 October 2020
Orbit: 459 x 1309 km, 30.4° (Epoch: 24 November)

Event Time Altitude Azimuth Distance (km) Brightness Sun altitude
Rises 02:06:01 0° 250° (WSW) 4,259 6.8 -27.9°
Reaches altitude 10° 02:09:04 10° 245° (WSW) 3,315 6.0 -28.5°
Maximum altitude 02:17:09 48° 174° (S) 1,623 3.4 -30.1°
Enters shadow 02:17:44 47° 163° (SSE) 1,630 3.4 -30.2°
